Regional Weather Roundup
Issued by NWS Jackson, KY

Home | Current Version | Previous Version | Text Only | Print | Product List | Glossary On
Versions: 1 2 3 4 5 6 7 8 9 10 11 12 13 14 15 16 17 18 19 20 21 22 23 24 25 26 27 28 29 30 31 32 33 34 35 36 37 38 39 40 41 42 43 44 45 46 47 48 49 50
000
ASUS43 KJKL 180611
RWRJKL

EAST KENTUCKY HOURLY WEATHER ROUNDUP
NATIONAL WEATHER SERVICE JACKSON KY
100 AM EST THU DEC 18 2014

NOTE: "FAIR" INDICATES FEW OR NO CLOUDS BELOW 12,000 FEET WITH
NO SIGNIFICANT WEATHER AND/OR OBSTRUCTIONS TO VISIBILITY.

* THESE REPORTS ARE NOT UNDER NWS QUALITY CONTROL AND MAY NOT
  REPORT WEATHER SUCH AS PRECIPITATION AND FOG.

KYZ079-080-083-085-087-088-110-112-115-119-120-180700
...EASTERN KENTUCKY...

CITY           SKY/WX    TMP DP  RH WIND       PRES   REMARKS
JACKSON        MOCLDY    28  23  81 N5        30.22S WCI  23
6HR MIN TEMP:  28; 6HR MAX TEMP:  32;

LONDON         CLEAR     27  23  85 CALM      30.23R
6HR MIN TEMP:  27; 6HR MAX TEMP:  35;

SOMERSET*      MOCLDY    27  27 100 CALM      30.27S
MONTICELLO*    CLEAR     24  22  92 CALM      30.28R
6HR MIN TEMP:  23; 6HR MAX TEMP:  30;

MIDDLESBORO*   CLEAR     28  27  96 CALM      30.23S
HARLAN APT*    PTCLDY    30  30 100 CALM      30.20S
PIKEVILLE APT* CLOUDY    30  27  86 W5        30.20F WCI  25
BIG SANDY*     CLOUDY    31  27  85 CALM      30.22S
6HR MIN TEMP:  30; 6HR MAX TEMP:  33;

MOREHEAD APT*  CLOUDY    30  23  74 NW5       30.26S WCI  25
$$

KYZ035-036-041-042-044-050-067-078-099-180700
...CENTRAL KENTUCKY...

CITY           SKY/WX    TMP DP  RH WIND       PRES   REMARKS
MT STERLING*   CLOUDY    30  27  86 N3        30.26S
FLEMING/MASON* CLOUDY    28  21  74 NW9       30.26F WCI  20
DANVILLE*      PTCLDY    23  23 100 N5        30.26S WCI  17
RICHMOND*      CLOUDY    27  23  86 CALM      30.25S
LEXINGTON      CLOUDY    28  23  81 N7        30.25S WCI  21
6HR MIN TEMP:  27; 6HR MAX TEMP:  32;

FRANKFORT      CLOUDY    29  22  75 N6        30.26S WCI  23
6HR MIN TEMP:  29; 6HR MAX TEMP:  32;

$$

KYZ091>093-OHZ055-061-077-WVZ005-015-034-035-042-180700
...SOUTHERN OHIO/WEST VIRGINIA...

CITY           SKY/WX    TMP DP  RH WIND       PRES   REMARKS
COVINGTON      CLOUDY    27  19  72 N12       30.26F WCI  17
COLUMBUS       CLOUDY    27  18  69 W8        30.23S WCI  19
DAYTON         CLOUDY    27  19  72 W9        30.25S WCI  18
WILMINGTON     CLOUDY    25  18  74 N12       30.25S WCI  14
HUNTINGTON     CLOUDY    31  23  72 NW7       30.23S WCI  24
CHARLESTON     CLOUDY    33  24  69 NW8       30.21S WCI  26
PINEVILLE*     CLOUDY    34  30  86 MISG      30.21S
BECKLEY        CLOUDY    29  23  78 W12       30.11S WCI  19
BLUEFIELD      CLOUDY    29  22  75 NW14G24   30.10S WCI  18
$$

VAZ002-007-008-TNZ017-027-036-066-071-180700
...SOUTHWEST VIRGINIA/EAST TENNESSEE...

CITY           SKY/WX    TMP DP  RH WIND       PRES   REMARKS
WISE*          CLOUDY    30  30 100 NW5       30.14S WCI  25
JONESVILLE*    PTCLDY    28  27  93 CALM      30.22S
ABINGDON*      CLEAR     31  29  94 CALM      30.14F
BRISTOL        CLEAR     29  27  92 CALM      30.17F
KNOXVILLE      PTCLDY    34  29  82 N5        30.21R WCI  30
OAK RIDGE      PTCLDY    32  29  88 CALM      30.22S
CROSSVILLE     PTCLDY    30  26  85 CALM      30.20S FOG
NASHVILLE      CLOUDY    33  29  85 CALM      30.26F
$$

...KEY TO REMARKS...
VSB - VISIBILITY IN MILES
WCI - WIND CHILL INDEX
HX  - HEAT INDEX

$$


USA.gov is the U.S. government's official web portal to all federal, state and local government web resources and services.